Location: Banff
(51.1667°N, 115.5667°W)
Time: 16:19:01
(UTC+00:00)

SR - Visible Passes

Search period start: 26 November 2020 00:00
Search period end: 06 December 2020 00:00
Orbit: 579 x 876 km, 66.7° (Epoch: 25 November)

Date Brightness Start Highest point End Pass type
(mag) Time Alt. Az. Time Alt. Az. Time Alt. Az.
26 Nov ? 12:32:03 11° SSW 12:32:03 11° SSW 12:32:18 10° SSW visible
27 Nov ? 02:57:59 10° SSW 02:58:49 15° SSW 02:58:49 15° SSW visible
28 Nov ? 02:08:43 10° S 02:11:08 28° SSE 02:11:08 28° SSE visible
29 Nov ? 01:20:06 10° SSE 01:23:23 21° ESE 01:23:23 21° ESE visible
29 Nov ? 03:00:32 10° SW 03:02:49 30° WSW 03:02:49 30° WSW visible
30 Nov ? 00:33:22 10° ESE 00:34:09 10° ESE 00:34:57 10° E visible
30 Nov ? 02:10:48 10° SSW 02:14:59 70° SE 02:14:59 70° SE visible
30 Nov ? 03:53:52 10° W 03:54:25 13° W 03:54:25 13° W visible
01 Dec ? 01:21:34 10° S 01:25:36 37° ESE 01:27:03 29° ENE visible
01 Dec ? 03:03:24 10° WSW 03:06:29 34° WNW 03:06:29 34° WNW visible
02 Dec ? 00:33:03 10° SSE 00:36:13 20° ESE 00:39:04 12° ENE visible
02 Dec ? 02:13:18 10° SW 02:17:42 68° NW 02:18:29 56° N visible
02 Dec ? 03:57:15 10° WNW 03:57:55 13° WNW 03:57:55 13° WNW visible
03 Dec ? 01:23:37 10° SSW 01:27:58 67° ESE 01:30:25 27° NE visible
03 Dec ? 03:06:33 10° W 03:09:51 27° NW 03:09:51 27° NW visible
04 Dec ? 00:34:26 10° S 00:38:26 35° ESE 00:42:18 12° NE visible
04 Dec ? 02:16:08 10° WSW 02:20:24 42° NW 02:21:43 34° N visible
04 Dec ? 04:00:47 10° WNW 04:01:08 11° NW 04:01:08 11° NW visible
05 Dec ? 01:26:03 10° SW 01:30:30 72° NW 01:33:32 22° NNE visible
05 Dec ? 03:09:55 10° WNW 03:12:56 20° NW 03:12:56 20° NW visible
